Flag for U.S.A. Weather past 2 weeks in Palm Springs, California, U.S.A.

Now
76 °F

Sunny.


Feels Like: 78 °F
Forecast: 66 / 92 °F
Wind: 5 mph from Northwest

Location: Palm Springs Regional Airport

Current Time: May 26, 2015 at 9:17:20 AM

Latest Report: May 26, 2015 at 8:53 AM


Visibility: 10 mi

Pressure: 29.90 "Hg

Humidity: 40%

Dew point: 50 °F

Location of Palm SpringsLocation

Historic Weather in Palm Springs — Graph

°F

Palm Springs temperature yesterday

Maximum temperature yesterday: 90 °F (at 2:53 PM)
Minimum temperature yesterday: 64 °F (at 5:53 AM)
Average temperature yesterday: 78 °F

Past Weeks' High & Low Weather Summary

 TemperatureHumidityPressure
High94 °F (May 11, 2:53 PM)86% (May 16, 1:53 AM)29.99 "Hg (May 16, 1:53 AM)
Low53 °F (May 16, 3:53 AM)6% (May 13, 11:53 AM)29.68 "Hg (May 11, 5:53 PM)
Average73 °F37%29.85 "Hg
* Reported May 11 7:53 AM — May 26 7:53 AM, Palm Springs, Weather by CustomWeather, © 2015

Note: Actual official high and low records may vary slightly from our data, if they occured in-between our weather recording intervals... More about our weather records

Advertising

Palm Springs weather history for previous 24 hours

 ConditionsComfort  
Time TempWeatherWind HumidityBarometerVisibility
7:53 AM
Tue, May 26
71 °FSunny.7 mph51%29.91 "Hg10 mi
6:53 AM67 °FSunny.No wind61%29.91 "Hg10 mi
5:53 AM66 °FClear.3 mph61%29.90 "Hg10 mi
4:53 AM67 °FClear.No wind59%29.88 "Hg10 mi
3:53 AM68 °FClear.7 mph57%29.88 "Hg10 mi
2:53 AM69 °FClear.6 mph55%29.88 "Hg10 mi
1:53 AM69 °FClear.No wind59%29.88 "Hg10 mi
12:53 AM71 °FClear.5 mph53%29.88 "Hg10 mi
11:53 PM
Mon, May 25
74 °FClear.No wind46%29.88 "Hg10 mi
10:53 PM75 °FClear.3 mph45%29.87 "Hg10 mi
9:53 PM78 °FClear.15 mph40%29.85 "Hg10 mi
8:53 PM80 °FPassing clouds.20 mph38%29.83 "Hg10 mi
7:53 PM83 °FScattered clouds.18 mph33%29.80 "Hg10 mi
6:53 PM87 °FScattered clouds.17 mph28%29.79 "Hg10 mi
5:53 PM89 °FSunny.14 mph24%29.78 "Hg10 mi
4:53 PM90 °FPassing clouds.13 mph24%29.80 "Hg10 mi
3:53 PM90 °FSunny.15 mph24%29.82 "Hg10 mi
2:53 PM90 °FSunny.13 mph24%29.84 "Hg10 mi
1:53 PM88 °FSunny.9 mph25%29.86 "Hg10 mi
12:53 PM87 °FScattered clouds.10 mph27%29.88 "Hg10 mi
11:53 AM85 °FSunny.5 mph29%29.89 "Hg10 mi
10:53 AM84 °FSunny.12 mph29%29.89 "Hg10 mi
9:53 AM80 °FSunny.6 mph34%29.89 "Hg10 mi
Weather by CustomWeather, © 2015

See weather overviewHow to use our weather pages